Date String (YYYY-MM-DD hh:mm:ss) UTC,Instrument flags,absolute air pressure of the measurement (hPa),sample flow rate (lpm),inlet stack bypass flow (lpm),air temperature of the measurement (°C),ambient temperature measured by the external sensor (°C),aerosol sample conditioner tube jacket temperature (°C),OPC LED temperature (°C),internal box temperature (°C),relative humidity of the measurement (%),span deviation,mass concentration of particles derived from Lorenz-Mie calculation of OPC scattering (μg/m³),mass concentration of particles derived from Lorenz-Mie calculation of OPC scattering (μg/m³),mass concentration of particles derived from Lorenz-Mie calculation of OPC scattering (μg/m³)
DateTimeUTC,F1_M11,P_M11,Q1_M11,Q2_M11,T1_M11,T2_M11,T3_M11,T4_M11,T5_M11,U1_M11,ZSPAN_M11,X2_M11,X0_M11,X1_M11
2023-12-03 06:00:00,SystemResetWarning,0818.5,5.01,000.00,018.9,017.7,000.0,027.3,020.0,12.6,0000.0,0001.21,0008.38,0000.44
2023-12-03 06:01:00,SystemResetWarning,0818.5,5.00,000.00,018.9,017.6,000.0,027.3,020.0,12.4,0000.0,0001.17,0008.53,0000.43
2023-12-03 06:02:00,SystemResetWarning,0818.6,5.01,000.00,018.9,017.5,000.0,027.3,020.0,12.3,0000.0,0001.14,0008.30,0000.42
2023-12-03 06:03:00,SystemResetWarning,0818.7,5.00,000.00,018.8,017.5,000.0,027.3,020.0,12.3,0000.0,0001.06,0007.78,0000.42
2023-12-03 06:04:00,SystemResetWarning,0818.7,4.99,000.00,018.8,017.5,000.0,027.3,020.0,12.3,0000.0,0001.02,0008.30,0000.42
2023-12-03 06:05:00,SystemResetWarning,0818.7,4.99,000.00,018.8,017.4,000.0,027.3,020.0,12.4,0000.0,0001.00,0008.47,0000.41
2023-12-03 06:06:00,SystemResetWarning,0818.7,5.00,000.00,018.8,017.4,000.0,027.3,020.0,12.4,0000.0,0001.06,0008.33,0000.40
2023-12-03 06:07:00,SystemResetWarning,0818.7,5.00,000.00,018.8,017.4,000.0,027.3,020.0,12.4,0000.0,0001.12,0008.19,0000.41
2023-12-03 06:08:00,SystemResetWarning,0818.8,5.01,000.00,018.8,017.4,000.0,027.4,020.0,12.3,0000.0,0001.16,0007.71,0000.42
2023-12-03 06:09:00,SystemResetWarning,0819.0,5.00,000.00,018.8,017.4,000.0,027.4,020.0,12.5,0000.0,0001.15,0007.44,0000.43
2023-12-03 06:10:00,SystemResetWarning,0819.1,5.00,000.00,018.8,017.4,000.0,027.3,020.0,12.5,0000.0,0001.14,0007.46,0000.42
2023-12-03 06:11:00,SystemResetWarning,0818.9,4.99,000.00,018.8,017.4,000.0,027.3,020.0,12.5,0000.0,0001.18,0007.55,0000.42
2023-12-03 06:12:00,SystemResetWarning,0818.7,4.99,000.00,018.8,017.5,000.0,027.3,020.0,12.3,0000.0,0001.18,0006.81,0000.41
2023-12-03 06:13:00,SystemResetWarning,0818.8,5.01,000.00,018.8,017.5,000.0,027.3,020.0,12.2,0000.0,0001.18,0007.06,0000.41
2023-12-03 06:14:00,SystemResetWarning,0819.0,5.00,000.00,018.8,017.4,000.0,027.3,020.0,12.3,0000.0,0001.16,0007.24,0000.41
2023-12-03 06:15:00,SystemResetWarning,0819.1,5.01,000.00,018.8,017.4,000.0,027.3,020.0,12.2,0000.0,0001.22,0007.65,0000.41
2023-12-03 06:16:00,SystemResetWarning,0818.9,5.00,000.00,018.7,017.4,000.0,027.3,020.0,12.2,0000.0,0001.18,0007.12,0000.42
2023-12-03 06:17:00,SystemResetWarning,0819.1,5.00,000.00,018.7,017.4,000.0,027.3,020.0,12.2,0000.0,0001.18,0007.80,0000.42
2023-12-03 06:18:00,SystemResetWarning,0818.9,5.00,000.00,018.8,017.6,000.0,027.3,020.3,12.4,0000.0,0001.14,0007.77,0000.42
2023-12-03 06:19:00,SystemResetWarning,0818.8,5.01,000.00,018.9,018.5,000.0,027.2,020.8,12.3,0000.0,0001.10,0007.47,0000.41
2023-12-03 06:20:00,SystemResetWarning,0818.8,4.99,000.00,019.1,019.2,000.0,027.2,021.0,12.3,0000.0,0001.10,0007.97,0000.39
2023-12-03 06:21:00,SystemResetWarning,0818.7,4.98,000.00,019.1,019.1,000.0,027.2,020.6,12.3,0000.0,0001.07,0009.43,0000.39
2023-12-03 06:22:00,SystemResetWarning,0818.6,4.99,000.00,019.1,018.9,000.0,027.3,020.3,12.2,0000.0,0000.99,0010.02,0000.38
2023-12-03 06:23:00,SystemResetWarning,0818.7,5.01,000.00,019.0,018.6,000.0,027.3,020.0,12.3,0000.0,0000.95,0010.32,0000.37
2023-12-03 06:24:00,SystemResetWarning,0818.6,5.01,000.00,019.0,018.3,000.0,027.3,020.0,12.3,0000.0,0000.99,0010.52,0000.37
2023-12-03 06:25:00,SystemResetWarning,0818.6,5.00,000.00,018.9,018.1,000.0,027.3,020.0,12.3,0000.0,0000.98,0010.57,0000.37
2023-12-03 06:26:00,SystemResetWarning,0818.4,5.00,000.00,018.9,017.9,000.0,027.3,020.0,12.3,0000.0,0000.92,0009.77,0000.37
2023-12-03 06:27:00,SystemResetWarning,0818.4,5.00,000.00,018.9,017.8,000.0,027.3,020.0,12.1,0000.0,0000.92,0009.50,0000.37
2023-12-03 06:28:00,SystemResetWarning,0818.5,5.01,000.00,018.9,017.7,000.0,027.3,020.0,12.2,0000.0,0000.91,0008.97,0000.37
2023-12-03 06:29:00,SystemResetWarning,0818.3,5.01,000.00,018.8,017.6,000.0,027.3,020.0,12.3,0000.0,0000.94,0008.97,0000.37
2023-12-03 06:30:00,SystemResetWarning,0818.3,5.00,000.00,018.8,017.5,000.0,027.3,020.0,12.1,0000.0,0000.93,0008.92,0000.37
2023-12-03 06:31:00,SystemResetWarning,0818.2,5.00,000.00,018.8,017.5,000.0,027.3,020.0,12.2,0000.0,0000.97,0008.29,0000.37
2023-12-03 06:32:00,SystemResetWarning,0818.2,5.00,000.00,018.8,017.5,000.0,027.3,020.0,12.3,0000.0,0000.98,0006.56,0000.36
2023-12-03 06:33:00,SystemResetWarning,0818.2,4.99,000.00,018.8,017.5,000.0,027.3,020.0,12.2,0000.0,0000.98,0005.55,0000.36
2023-12-03 06:34:00,SystemResetWarning,0818.3,5.00,000.00,018.8,017.4,000.0,027.3,020.0,12.2,0000.0,0000.98,0004.51,0000.36
2023-12-03 06:35:00,SystemResetWarning,0818.3,4.99,000.00,018.8,017.4,000.0,027.3,020.0,12.5,0000.0,0000.92,0003.44,0000.36
2023-12-03 06:36:00,SystemResetWarning,0818.2,5.01,000.00,018.8,017.4,000.0,027.3,020.0,12.4,0000.0,0000.96,0004.10,0000.36
2023-12-03 06:37:00,SystemResetWarning,0818.2,4.99,000.00,018.7,017.4,000.0,027.3,020.0,12.4,0000.0,0000.98,0005.10,0000.35
2023-12-03 06:38:00,SystemResetWarning,0818.3,5.00,000.00,018.7,017.4,000.0,027.3,020.1,12.3,0000.0,0000.96,0005.42,0000.35
2023-12-03 06:39:00,SystemResetWarning,0818.4,5.02,000.00,018.8,018.2,000.0,027.3,020.6,12.4,0000.0,0000.91,0005.27,0000.35
2023-12-03 06:40:00,SystemResetWarning,0818.2,4.99,000.00,019.0,019.0,000.0,027.3,021.0,12.4,0000.0,0000.87,0005.10,0000.34
2023-12-03 06:41:00,SystemResetWarning,0818.0,4.99,000.00,019.1,019.1,000.0,027.3,020.7,12.2,0000.0,0000.90,0005.23,0000.34
2023-12-03 06:42:00,SystemResetWarning,0818.2,4.99,000.00,019.0,018.9,000.0,027.3,020.3,12.1,0000.0,0000.89,0006.70,0000.34
2023-12-03 06:43:00,SystemResetWarning,0818.2,5.00,000.00,019.0,018.6,000.0,027.3,020.0,12.3,0000.0,0000.93,0007.71,0000.34
2023-12-03 06:44:00,SystemResetWarning,0818.1,5.00,000.00,018.9,018.4,000.0,027.3,020.0,12.5,0000.0,0000.90,0007.37,0000.35
2023-12-03 06:45:00,SystemResetWarning,0817.9,5.00,000.00,018.9,018.1,000.0,027.3,020.0,12.4,0000.0,0000.88,0007.34,0000.34
2023-12-03 06:46:00,SystemResetWarning,0818.0,5.00,000.00,018.9,018.0,000.0,027.3,020.0,12.4,0000.0,0000.87,0007.17,0000.34
2023-12-03 06:47:00,SystemResetWarning,0817.8,5.00,000.00,018.8,017.9,000.0,027.3,020.0,12.5,0000.0,0000.84,0006.33,0000.34
2023-12-03 06:48:00,SystemResetWarning,0818.1,5.00,000.00,018.8,017.8,000.0,027.3,020.0,12.3,0000.0,0000.83,0005.15,0000.33
2023-12-03 06:49:00,SystemResetWarning,0817.9,5.00,000.00,018.8,017.7,000.0,027.3,020.0,12.5,0000.0,0000.85,0005.05,0000.34
2023-12-03 06:50:00,SystemResetWarning,0818.1,5.00,000.00,018.8,017.6,000.0,027.3,020.0,12.4,0000.0,0000.93,0005.47,0000.34
2023-12-03 06:51:00,SystemResetWarning,0818.2,5.00,000.00,018.8,017.5,000.0,027.3,020.0,12.6,0000.0,0000.99,0005.59,0000.35
2023-12-03 06:52:00,SystemResetWarning,0818.1,4.99,000.00,018.8,017.5,000.0,027.3,020.0,12.6,0000.0,0000.98,0005.61,0000.35
2023-12-03 06:53:00,SystemResetWarning,0818.1,5.00,000.00,018.8,017.5,000.0,027.3,020.0,12.5,0000.0,0000.95,0004.29,0000.35
2023-12-03 06:54:00,SystemResetWarning,0817.9,5.00,000.00,018.8,017.5,000.0,027.3,020.0,12.5,0000.0,0000.93,0004.07,0000.35
2023-12-03 06:55:00,SystemResetWarning,0818.0,4.99,000.00,018.7,017.5,000.0,027.3,020.0,12.3,0000.0,0000.94,0004.29,0000.35
2023-12-03 06:56:00,SystemResetWarning,0817.9,5.01,000.00,018.8,017.7,000.0,027.3,020.4,12.3,0000.0,0000.97,0004.77,0000.35
2023-12-03 06:57:00,SystemResetWarning,0817.9,5.00,000.00,018.9,018.6,000.0,027.3,020.9,12.2,0000.0,0001.00,0006.27,0000.35
2023-12-03 06:58:00,SystemResetWarning,0818.1,4.99,000.00,019.1,019.2,000.0,027.3,021.0,12.0,0000.0,0001.03,0007.48,0000.35
2023-12-03 06:59:00,SystemResetWarning,0818.1,4.99,000.00,019.1,019.1,000.0,027.3,020.6,11.9,0000.0,0001.04,0007.95,0000.35
